[[{"header":{"parameterUnit":"m.s-1","parameterCategory":1,"la1":30.2991,"la2":30.254,"lo1":-89.0895,"lo2":-89.0444,"dy":0.0017,"dx":0.0017,"nx":28,"ny":28,"refTime":"2024-10-08T09:00:00:Z","depth":0,"parameterNumber":2,"parameterNumberName":"U-component_of_WINDS"},"data":[0,0,0,0,0,0,0,0,0,0,0,0,0,0,0,0,0,0,0,0,0,0,0,0,0,0,0,0,0,0,0,0,0,0,0,0,0,0,0,0,0,0,0,0,0,0,0,0,0,0,0,0,0,0,0,0,0,0,0.0165,0.0165,0,0.0152,0.0152,0.0152,0.0155,0.0155,0.0156,0.0156,0.0141,0.0141,0.014,0,0,0,0,0,0,0,0,0,0,0,0,0,0.0193,0.0192,0.0165,0.0165,0.0165,0.0152,0.0152,0.0152,0.0155,0.0156,0.0156,0.0156,0.0142,0.0141,0.014,0,0,0,0,0,0,0,0,0,0,0,0,0,0.018,0.0192,0.0165,0.0165,0.0165,0.0152,0.0152,0.0152,0.0155,0.0156,0.0156,0.0156,0.0142,0.0141,0.014,0.0126,0,0,0.0137,0.0137,0,0,0,0,0,0,0,0,0.0181,0.0179,0.0165,0.0165,0.0165,0.0156,0.0156,0.0143,0.0155,0.0159,0.0156,0.0156,0.0146,0.0145,0.0141,0.0125,0.0125,0.0137,0.0136,0.0136,0.0136,0,0,0,0,0,0,0,0.0182,0.018,0.016,0.0165,0.0165,0.0166,0.0164,0.0154,0.015,0.0159,0.0159,0.0157,0.0146,0.0142,0.0141,0.0125,0.0137,0.0136,0.0136,0.0135,0.0097,0.0096,0,0,0,0,0,0,0.0183,0.0181,0.016,0.016,0.0174,0.0165,0.0163,0.0158,0.015,0.015,0.0157,0.0157,0.0144,0.0142,0.014,0.0123,0.0136,0.0135,0.0135,0.0097,0.0097,0.0096,0,0,0,0,0,0,0.0184,0.0181,0.0161,0.017,0.0168,0.0164,0.0158,0.0158,0.0154,0.0149,0.0148,0.0154,0.0144,0.0142,0.013,0.0123,0.0135,0.0134,0.0098,0.0097,0.0096,0.0089,0,0,0,0,0,0,0.0185,0.0181,0.0176,0.017,0.0167,0.0151,0.0158,0.0157,0.0153,0.0153,0.0146,0.0145,0.0144,0.0131,0.0129,0.0122,0.0133,0.0098,0.0097,0.0097,0.009,0.0088,0.0086,0,0,0,0,0,0.0185,0.0175,0.0176,0.0173,0.0161,0.015,0.0149,0.0148,0.0152,0.0147,0.0143,0.0145,0.0124,0.013,0.0127,0.012,0.0099,0.0098,0.0097,0.009,0.0088,0.0087,0,0,0,0,0,0,0.018,0.0174,0.0175,0.0162,0.0157,0.0151,0.0144,0.0145,0.0138,0.0139,0.0138,0.0137,0.0124,0.0121,0.0127,0.0106,0.0112,0.011,0.0108,0.0106,0.0105,0.0105,0.0132,0,0,0,0,0,0.0177,0.0169,0.0164,0.0153,0.015,0.0148,0.0143,0.0143,0.0137,0.0135,0.0131,0.0125,0.0117,0.0111,0.0104,0.009,0.0088,0.0083,0.0082,0.008,0.0079,0.007,0.0068,0.0093,0.0093,0.0093,0,0,0.0171,0.0167,0.0162,0.0152,0.0148,0.0139,0.0146,0.0137,0.013,0.0133,0.0122,0.0119,0.0112,0.0099,0.0093,0.0095,0.0072,0.0079,0.0078,0.0077,0.0069,0.0067,0.0065,0.0092,0.0092,0.0092,0,0,0.0155,0.0152,0.0142,0.0138,0.0132,0.013,0.0128,0.0122,0.012,0.0108,0.011,0.0103,0.0089,0.0084,0.008,0.0063,0.0064,0.0061,0.0052,0.0044,0.0042,0.004,0.0034,0.0031,0.0059,0.0059,0.0059,0,0.0149,0.0136,0.0137,0.0127,0.0123,0.0126,0.0115,0.0111,0.0103,0.0099,0.0103,0.0086,0.0082,0.0067,0.0063,0.006,0.0057,0.0061,0.0042,0.0041,0.0039,0.0033,0.003,0.0059,0.0059,0.0059,0.0059,0,0.0128,0.012,0.0112,0.0104,0.0099,0.0089,0.0088,0.0082,0.0083,0.0081,0.0069,0.0064,0.0055,0.0052,0.0052,0.0037,0.0039,0.0043,0.0049,0.0036,0.003,0.0028,0.0058,0.0058,0.0058,0.0059,0,0,0.0108,0.01,0.0097,0.0094,0.0087,0.0081,0.0071,0.0063,0.0058,0.0052,0.0044,0.0033,0.0036,0.0031,0.0031,0.0024,0.001,0.0028,0.0028,0.0024,-0.0007,-0.0011,-0.0013,0.0012,0.0011,0.0011,-0.0007,0,0.0091,0.0074,0.0074,0.0059,0.0051,0.0054,0.0046,0.0041,0.0039,0.0031,0.0029,0.0021,0.0026,0.0023,0.0016,0.0013,0.0004,0.0015,0.0003,0.0003,0.0004,-0.0016,-0.002,-0.0037,-0.0009,-0.001,-0.001,0,0.0069,0.0063,0.0047,0.0041,0.0038,0.0031,0.0023,0.0016,0.0011,0.001,0.0005,0.0006,-0.0004,0.0003,-0.0011,-0.0004,-0.0008,-0.001,-0.0011,-0.0013,-0.0005,-0.002,-0.0042,-0.0045,-0.0013,-0.0013,-0.0013,0,0.0055,0.0043,0.0031,0.0028,0.0022,0.0016,0.0013,0.0008,0.0003,-0.0003,-0.0006,-0.0014,-0.0018,-0.0024,-0.0026,-0.002,-0.004,-0.0033,-0.0042,-0.0042,-0.0047,-0.0047,-0.0071,-0.0048,-0.0048,-0.0048,-0.0048,0,0.0036,0.0025,0.0025,0.0017,0.0006,0.0006,-0.0005,-0.0008,-0.0012,-0.002,-0.0017,-0.0025,-0.0025,-0.0033,-0.0034,-0.0046,-0.0048,-0.0049,-0.005,-0.005,-0.005,-0.0054,-0.0053,-0.0049,-0.0049,-0.0048,-0.0048,0,0.0017,0.0016,0.0004,-0.0001,-0.0002,-0.001,-0.0015,-0.0022,-0.0023,-0.0033,-0.0035,-0.0038,-0.0047,-0.0048,-0.0058,-0.0059,-0.0074,-0.0072,-0.0072,-0.0072,-0.0081,-0.0081,-0.011,-0.0114,-0.0087,-0.0088,-0.0088,0,0.0004,-0.0003,-0.0009,-0.0014,-0.0017,-0.0025,-0.003,-0.0029,-0.0035,-0.0041,-0.0048,-0.0056,-0.0063,-0.0077,-0.008,-0.0088,-0.0088,-0.0097,-0.0089,-0.009,-0.0089,-0.0089,-0.009,-0.01,-0.01,-0.01,-0.01,0,-0.0018,-0.0018,-0.0025,-0.0033,-0.0038,-0.0044,-0.005,-0.0054,-0.0054,-0.006,-0.0069,-0.0074,-0.0085,-0.0094,-0.0102,-0.0105,-0.0103,-0.0103,-0.0105,-0.0107,-0.0107,-0.0108,-0.0077,-0.0102,-0.0102,-0.0102,-0.0102,-0.0102,-0.0035,-0.0042,-0.0047,-0.0055,-0.0059,-0.0064,-0.0071,-0.0073,-0.008,-0.0089,-0.0088,-0.0098,-0.0103,-0.0113,-0.0117,-0.0125,-0.0122,-0.0126,-0.0127,-0.0128,-0.013,-0.0104,-0.0126,-0.0126,-0.0126,-0.0126,-0.0126,0,-0.0059,-0.0062,-0.0069,-0.0076,-0.0083,-0.0079,-0.0085,-0.0091,-0.0099,-0.0104,-0.0111,-0.0121,-0.013,-0.0133,-0.0141,-0.0147,-0.0147,-0.015,-0.015,-0.0151,-0.0131,-0.0129,-0.015,-0.015,-0.015,-0.015,-0.015,-0.015,-0.0072,-0.0084,-0.0084,-0.0098,-0.0101,-0.011,-0.0114,-0.0119,-0.0123,-0.0134,-0.0141,-0.0143,-0.0147,-0.0156,-0.0163,-0.0164,-0.0168,-0.0171,-0.0172,-0.0154,-0.0152,-0.015,-0.0147,-0.0172,-0.0172,-0.0191,-0.0191,-0.0191]},{"header":{"parameterUnit":"m.s-1","parameterCategory":1,"la1":30.2991,"la2":30.254,"lo1":-89.0895,"lo2":-89.0444,"dy":0.0017,"dx":0.0017,"nx":28,"ny":28,"refTime":"2024-10-08T09:00:00:Z","depth":0,"parameterNumber":3,"parameterNumberName":"V-component_of_WINDS"},"data":[0,0,0,0,0,0,0,0,0,0,0,0,0,0,0,0,0,0,0,0,0,0,0,0,0,0,0,0,0,0,0,0,0,0,0,0,0,0,0,0,0,0,0,0,0,0,0,0,0,0,0,0,0,0,0,0,0,0,-3.4658,-3.4659,0,-3.4675,-3.4675,-3.4675,-3.4644,-3.4643,-3.4642,-3.4641,-3.4655,-3.4656,-3.4658,0,0,0,0,0,0,0,0,0,0,0,0,0,-3.4599,-3.46,-3.4658,-3.4659,-3.4659,-3.4675,-3.4675,-3.4675,-3.4644,-3.4643,-3.4642,-3.464,-3.4655,-3.4656,-3.4658,0,0,0,0,0,0,0,0,0,0,0,0,0,-3.4621,-3.46,-3.4658,-3.4645,-3.4644,-3.4675,-3.4675,-3.4675,-3.4644,-3.4643,-3.4641,-3.464,-3.4654,-3.4656,-3.4658,-3.4701,0,0,-3.4664,-3.4665,0,0,0,0,0,0,0,0,-3.462,-3.4623,-3.4647,-3.4646,-3.4645,-3.4656,-3.4659,-3.4684,-3.4645,-3.4644,-3.4641,-3.4639,-3.4656,-3.4658,-3.4664,-3.4702,-3.4702,-3.4664,-3.4666,-3.4666,-3.4667,0,0,0,0,0,0,0,-3.4618,-3.4622,-3.4665,-3.4647,-3.4646,-3.4638,-3.464,-3.4664,-3.4659,-3.4644,-3.4642,-3.4644,-3.4656,-3.4663,-3.4665,-3.4703,-3.4664,-3.4666,-3.4667,-3.4668,-3.4777,-3.4779,0,0,0,0,0,0,-3.4618,-3.4621,-3.4664,-3.4665,-3.4628,-3.464,-3.4642,-3.4654,-3.4658,-3.4658,-3.4646,-3.4643,-3.466,-3.4662,-3.4665,-3.4716,-3.4666,-3.4668,-3.4669,-3.4775,-3.4777,-3.4779,0,0,0,0,0,0,-3.4617,-3.4623,-3.4663,-3.4643,-3.4647,-3.4643,-3.4657,-3.4655,-3.4662,-3.466,-3.4658,-3.4654,-3.4659,-3.4662,-3.4693,-3.4716,-3.4669,-3.4671,-3.4773,-3.4776,-3.4778,-3.4819,0,0,0,0,0,0,-3.4616,-3.4622,-3.4639,-3.4643,-3.4648,-3.4692,-3.4658,-3.4656,-3.4666,-3.4662,-3.4667,-3.4666,-3.4658,-3.469,-3.4695,-3.4718,-3.4673,-3.4771,-3.4775,-3.4778,-3.4815,-3.4822,-3.4828,0,0,0,0,0,-3.4614,-3.4649,-3.464,-3.4645,-3.4669,-3.4693,-3.4696,-3.4686,-3.4668,-3.4684,-3.4683,-3.4666,-3.4713,-3.4693,-3.4698,-3.4723,-3.477,-3.4774,-3.4777,-3.4812,-3.4821,-3.4828,0,0,0,0,0,0,-3.4646,-3.4649,-3.4639,-3.4677,-3.4685,-3.4688,-3.4708,-3.4696,-3.4708,-3.4705,-3.4691,-3.4693,-3.4726,-3.4727,-3.4705,-3.4765,-3.4738,-3.4743,-3.4763,-3.4771,-3.4778,-3.4776,-3.4674,0,0,0,0,0,-3.4658,-3.4678,-3.4679,-3.4712,-3.4717,-3.4712,-3.4722,-3.4714,-3.4722,-3.4725,-3.4725,-3.4733,-3.4749,-3.476,-3.4775,-3.4816,-3.4816,-3.4835,-3.4841,-3.4847,-3.4851,-3.4873,-3.4882,-3.4792,-3.4792,-3.4792,0,0,-3.4682,-3.4686,-3.4699,-3.4719,-3.4724,-3.4745,-3.4715,-3.4737,-3.4752,-3.4728,-3.4757,-3.4758,-3.4766,-3.4802,-3.4817,-3.4804,-3.4876,-3.4852,-3.4856,-3.4857,-3.4878,-3.4886,-3.4894,-3.4794,-3.4794,-3.4794,0,0,-3.4736,-3.4741,-3.477,-3.4776,-3.4785,-3.4782,-3.4789,-3.4794,-3.4794,-3.4824,-3.4806,-3.4823,-3.4852,-3.4858,-3.4865,-3.4924,-3.4909,-3.4929,-3.4963,-3.4985,-3.4992,-3.4998,-3.5019,-3.5027,-3.4934,-3.4934,-3.4934,0,-3.4764,-3.4795,-3.4785,-3.481,-3.4819,-3.48,-3.4828,-3.4835,-3.4848,-3.4855,-3.484,-3.4876,-3.488,-3.4917,-3.4932,-3.4938,-3.4945,-3.4928,-3.4992,-3.4998,-3.5003,-3.5023,-3.5031,-3.4936,-3.4936,-3.4936,-3.4935,0,-3.4829,-3.4851,-3.4873,-3.4888,-3.49,-3.4926,-3.4921,-3.4934,-3.4925,-3.4924,-3.4954,-3.4958,-3.4974,-3.4983,-3.4974,-3.5019,-3.5011,-3.4994,-3.4966,-3.5015,-3.5033,-3.5041,-3.4939,-3.4939,-3.4938,-3.4937,0,0,-3.4902,-3.4914,-3.4922,-3.4929,-3.4938,-3.4954,-3.498,-3.4997,-3.5009,-3.5019,-3.504,-3.5066,-3.5051,-3.5059,-3.5051,-3.507,-3.5117,-3.5051,-3.5051,-3.5063,-3.5167,-3.5179,-3.5188,-3.5107,-3.5108,-3.511,-3.5166,0,-3.4956,-3.5002,-3.4995,-3.5039,-3.5059,-3.5041,-3.5064,-3.5072,-3.5072,-3.5088,-3.5087,-3.5106,-3.5085,-3.5089,-3.5108,-3.5107,-3.5137,-3.5103,-3.5126,-3.5127,-3.5125,-3.5198,-3.5211,-3.5264,-3.5173,-3.5175,-3.5175,0,-3.5025,-3.5039,-3.5085,-3.5093,-3.5101,-3.5122,-3.5137,-3.5153,-3.5162,-3.5161,-3.5171,-3.516,-3.5186,-3.5159,-3.5194,-3.517,-3.518,-3.5181,-3.5183,-3.5184,-3.5154,-3.5201,-3.528,-3.5288,-3.5187,-3.5186,-3.5185,0,-3.5074,-3.5105,-3.5136,-3.5143,-3.5153,-3.5168,-3.5172,-3.518,-3.5191,-3.5204,-3.5211,-3.5227,-3.5235,-3.5248,-3.5241,-3.5222,-3.5278,-3.525,-3.5277,-3.5277,-3.5289,-3.5288,-3.5371,-3.5295,-3.5295,-3.5295,-3.5295,0,-3.5134,-3.5163,-3.5159,-3.5178,-3.521,-3.5202,-3.5234,-3.5236,-3.5244,-3.5263,-3.5249,-3.5267,-3.5258,-3.5276,-3.5271,-3.5301,-3.5305,-3.5304,-3.5302,-3.5305,-3.5305,-3.531,-3.5306,-3.5297,-3.5297,-3.5296,-3.5296,0,-3.5194,-3.5192,-3.5226,-3.5233,-3.5236,-3.5259,-3.5265,-3.5283,-3.5282,-3.5307,-3.5312,-3.5311,-3.5331,-3.5326,-3.5348,-3.5345,-3.5383,-3.5376,-3.538,-3.5378,-3.5405,-3.5403,-3.5494,-3.5506,-3.5423,-3.5424,-3.5425,0,-3.5232,-3.5254,-3.5265,-3.5277,-3.5284,-3.5304,-3.5316,-3.5309,-3.5322,-3.5335,-3.5351,-3.5371,-3.5386,-3.5419,-3.5419,-3.5436,-3.543,-3.5461,-3.5432,-3.5434,-3.543,-3.5429,-3.5431,-3.5466,-3.5467,-3.5468,-3.5468,0,-3.5301,-3.53,-3.5317,-3.5336,-3.535,-3.5364,-3.5376,-3.5387,-3.5381,-3.5396,-3.5418,-3.5429,-3.5453,-3.5472,-3.5488,-3.5492,-3.5479,-3.5478,-3.5485,-3.5487,-3.5489,-3.5488,-3.5395,-3.5475,-3.5474,-3.5474,-3.5474,-3.5473,-3.5351,-3.537,-3.5381,-3.5402,-3.5411,-3.5423,-3.5441,-3.5443,-3.5461,-3.548,-3.5475,-3.5499,-3.5509,-3.5529,-3.5535,-3.5554,-3.5542,-3.5552,-3.5554,-3.5557,-3.5561,-3.5486,-3.5556,-3.5556,-3.5556,-3.5556,-3.5556,0,-3.5419,-3.5425,-3.5445,-3.5463,-3.5479,-3.5468,-3.5481,-3.5495,-3.5517,-3.5528,-3.5543,-3.5568,-3.5587,-3.559,-3.5608,-3.5622,-3.5617,-3.5627,-3.5626,-3.5627,-3.557,-3.5562,-3.5631,-3.5631,-3.5631,-3.5631,-3.5631,-3.5631,-3.5456,-3.5488,-3.5488,-3.5525,-3.5531,-3.5556,-3.5564,-3.5575,-3.5584,-3.5613,-3.5629,-3.5631,-3.5639,-3.5657,-3.5674,-3.5675,-3.5682,-3.5694,-3.5692,-3.5639,-3.5631,-3.5624,-3.5616,-3.5696,-3.5696,-3.5748,-3.5748,-3.5749]}]]